This is the latest recevied weather packets stored in our database for station/object KD9JB-1. If no packets are shown the sender has not sent any weather packets the latest 1 day(s).
| Time | Temp. | Humidity | Pressure | Rain* | Wind** | Luminosity | Snow |
|---|---|---|---|---|---|---|---|
| 1778024495 | 10.56° C | 93% | 1007.6 hPa | 0.76 mm | 1.34 m/s, 20° | - | - |
| 1778024195 | 11.11° C | 92% | 1007.7 hPa | 0.51 mm | 1.34 m/s, 342° | - | - |
| 1778023895 | 11.11° C | 92% | 1007.4 hPa | 0.51 mm | 1.34 m/s, 9° | - | - |
| 1778023595 | 11.11° C | 92% | 1007.5 hPa | 0.25 mm | 1.34 m/s, 328° | - | - |
| 1778023295 | 11.11° C | 92% | 1007.5 hPa | 0.51 mm | 1.34 m/s, 347° | - | - |
| 1778022995 | 11.11° C | 92% | 1007.5 hPa | 0.51 mm | 1.79 m/s, 21° | - | - |
| 1778022695 | 11.11° C | 92% | 1007.6 hPa | 0.51 mm | 2.24 m/s, 128° | - | - |
| 1778022395 | 11.11° C | 92% | 1007.8 hPa | 0.51 mm | 2.24 m/s, 25° | - | - |
| 1778022095 | 11.11° C | 92% | 1007.7 hPa | 0.76 mm | 1.79 m/s, 296° | - | - |
| 1778021795 | 11.11° C | 92% | 1007.7 hPa | 0.76 mm | 2.24 m/s, 1° | - | - |
| 1778021495 | 11.11° C | 91% | 1007.7 hPa | 1.02 mm | 2.68 m/s, 343° | - | - |
| 1778021195 | 11.67° C | 92% | 1007.9 hPa | 1.27 mm | 2.24 m/s, 18° | - | - |
| 1778020895 | 11.67° C | 92% | 1007.8 hPa | 1.52 mm | 2.24 m/s, 276° | - | - |
| 1778020595 | 11.67° C | 92% | 1007.8 hPa | 2.03 mm | 2.24 m/s, 56° | - | - |
| 1778020295 | 12.22° C | 91% | 1007.7 hPa | 2.79 mm | 2.24 m/s, 330° | - | - |
| 1778019995 | 12.22° C | 92% | 1007.7 hPa | 2.79 mm | 1.79 m/s, 21° | - | - |
| 1778019695 | 12.78° C | 92% | 1007.6 hPa | 3.3 mm | 1.79 m/s, 20° | - | - |
| 1778019395 | 12.78° C | 91% | 1007.6 hPa | 3.56 mm | 2.24 m/s, 324° | - | - |
| 1778019095 | 13.33° C | 92% | 1007.4 hPa | 3.81 mm | 2.68 m/s, 350° | - | - |
| 1778018795 | 13.33° C | 91% | 1007.4 hPa | 4.06 mm | 2.68 m/s, 8° | - | - |
| 1778018495 | 13.89° C | 91% | 1007.3 hPa | 3.81 mm | 2.68 m/s, 18° | - | - |
| 1778018195 | 14.44° C | 92% | 1007.2 hPa | 3.81 mm | 2.24 m/s, 4° | - | - |
| 1778017895 | 15° C | 92% | 1007.1 hPa | 3.81 mm | 2.24 m/s, 348° | - | - |
| 1778017595 | 15° C | 92% | 1007 hPa | 4.06 mm | 1.79 m/s, 330° | - | - |
| 1778017295 | 15.56° C | 92% | 1006.8 hPa | 4.06 mm | 1.34 m/s, 285° | - | - |
* Rain latest hour (hover to see other rain measurements)
** Current wind speed in m/s (hover to see current wind gust speed)